Temperature
23 22 21 21 23 26 28 30 31 30 30 30 30 30 29 27 26 25 24 23 22 22 21 21 21 20 20 20 19 19 19 19 19 19 19 19 19 19 19 19 19 19 19 19 19 19 19 19 19
22 22 22 23 25 27 29 30 30 30 30 30 30 29 28 27 26 24 24 23 22 22 21 21 20 20 20 20 20 19 19 19 19 19 19 19 19 19 19 19 19 19 19 19 19 19 19 19 19
22 22 24 26 27 28 29 30 31 31 30 30 29 28 27 26 25 24 24 23 22 22 21 21 21 20 20 20 20 19 19 19 19 19 19 19 19 19 19 19 19 19 19 19 19 19 19 19 19
23 25 26 27 29 30 31 31 32 31 31 30 29 28 26 25 25 24 24 23 22 22 21 21 21 20 20 20 20 19 19 19 19 19 19 19 19 19 19 19 19 19 19 19 19 19 19 19 19
24 26 27 28 30 31 32 32 32 31 31 30 28 27 26 25 24 24 24 23 23 22 21 21 21 20 20 20 20 20 19 19 19 19 19 19 19 19 19 19 19 19 19 19 19 19 19 19 19
26 28 28 29 30 31 32 32 32 31 31 30 28 27 25 25 24 24 24 23 23 22 21 21 21 21 20 20 20 20 19 19 19 19 19 19 19 19 19 19 19 19 19 19 19 19 19 19 19
28 29 29 30 30 31 32 32 32 31 30 29 28 27 26 25 24 24 24 23 23 22 22 21 21 21 20 20 20 20 20 20 19 19 19 19 19 19 19 19 19 19 19 19 19 19 19 19 19
29 30 31 31 31 31 32 32 31 30 30 29 29 27 26 25 24 24 23 23 23 22 22 21 21 21 20 20 20 20 20 20 19 19 19 19 19 19 19 19 19 19 19 19 19 19 19 19 19
31 30 30 31 31 31 32 32 31 30 29 29 28 27 26 25 24 24 23 23 22 22 22 21 21 21 20 20 20 20 20 20 19 19 19 19 19 19 19 19 19 19 19 19 19 19 19 19 19
31 30 31 32 33 32 33 32 31 31 29 28 27 27 26 25 24 24 23 23 22 22 22 21 21 21 20 20 20 20 19 19 19 19 19 19 19 19 19 19 19 19 19 19 19 19 19 19 19
32 32 33 33 33 33 33 32 31 31 29 28 27 27 26 25 25 24 23 23 22 22 21 21 21 21 20 20 20 20 20 20 19 19 19 19 19 19 19 19 19 19 19 19 19 19 19 19 19
33 33 33 33 33 33 33 32 31 30 30 28 28 27 26 26 25 24 23 23 22 22 21 21 21 20 20 20 20 20 20 20 20 19 19 19 19 19 19 19 19 19 19 19 19 19 19 19 19
34 34 34 33 33 32 32 32 31 30 29 29 28 27 27 26 25 24 24 23 22 22 21 21 20 20 20 20 20 20 20 20 19 19 19 19 19 19 19 19 19 19 19 19 19 19 19 19 19
34 34 33 33 33 33 33 32 31 30 30 29 28 27 27 26 25 25 24 23 22 22 21 21 20 20 20 20 20 20 19 19 19 19 19 19 19 19 19 19 19 19 19 19 19 19 19 19 19
33 33 33 33 33 33 33 32 31 30 30 29 28 28 27 26 26 25 24 23 22 22 21 21 20 20 20 20 19 19 19 19 19 19 19 19 18 18 18 18 18 18 19 19 19 19 19 19 19
33 32 31 32 33 33 32 31 31 31 30 30 29 28 27 26 26 25 24 23 22 22 21 21 20 20 20 20 19 19 19 19 19 19 19 19 18 18 18 18 18 18 18 19 19 19 19 19 19
32 31 31 32 33 34 33 31 31 31 31 30 29 28 27 26 26 25 24 23 22 22 21 20 20 20 20 19 19 19 19 19 19 19 19 19 18 18 18 18 18 18 18 18 18 18 18 19 19
31 32 32 32 33 34 33 32 32 32 31 30 30 29 28 27 26 25 24 23 22 21 21 20 20 20 20 19 19 19 19 19 19 19 19 19 18 18 18 18 18 18 18 18 18 18 18 18 18
33 33 33 33 34 33 32 32 32 32 32 31 30 29 28 27 26 25 24 23 22 21 21 20 20 20 19 19 19 19 19 19 19 19 19 19 18 18 18 18 18 18 18 18 18 18 18 18 18
33 33 33 33 34 33 32 31 32 32 32 31 30 29 28 27 26 24 24 23 22 21 21 20 20 20 19 19 19 19 19 19 19 19 19 19 19 18 18 18 18 18 18 18 18 18 18 18 18
33 33 33 33 34 34 32 30 30 32 32 32 31 30 29 28 26 24 24 23 22 21 21 20 20 20 20 19 19 19 19 19 19 19 19 18 18 18 18 18 18 18 18 18 18 18 18 18 18
33 34 34 33 33 32 32 29 29 30 31 31 31 30 29 28 26 25 24 23 22 21 21 20 20 20 20 19 19 19 19 19 19 18 18 18 18 18 18 18 18 18 18 18 18 18 18 18 18
33 34 34 33 32 31 31 30 29 30 30 31 31 30 29 28 26 25 24 23 22 21 21 20 20 20 20 19 19 19 19 19 18 18 18 18 18 18 18 18 18 18 18 18 18 17 18 17 17
34 34 33 33 32 29 30 30 28 30 30 31 31 30 29 28 27 25 24 23 22 22 21 20 20 19 19 19 19 19 19 19 18 18 18 18 18 18 18 18 18 18 18 18 18 17 17 17 17
33 32 31 29 29 29 30 30 29 30 32 31 31 30 29 28 27 25 24 23 22 22 21 20 20 19 19 19 19 19 19 18 18 18 18 18 18 18 18 18 18 18 18 17 17 17 17 17 17
32 32 30 28 28 28 29 29 30 31 32 31 31 30 29 28 26 25 24 23 22 22 21 20 20 19 19 19 19 19 19 18 18 18 18 17 17 17 17 17 17 17 17 17 17 17 17 17 17
32 32 32 30 29 28 29 29 30 31 31 31 30 29 28 27 27 26 25 24 23 22 21 21 20 19 19 19 19 19 18 18 18 18 17 17 17 17 17 17 17 17 17 17 17 17 16 16 16
33 32 31 30 28 28 28 29 29 29 30 31 30 29 28 27 27 25 24 24 23 22 21 21 20 20 19 19 19 18 18 18 18 17 17 17 17 17 17 17 17 17 16 16 16 16 16 16 16
32 32 31 30 29 29 28 28 30 29 29 30 30 29 28 27 26 25 24 23 23 22 21 21 20 20 19 19 19 18 18 18 17 17 17 17 17 17 17 17 16 16 16 16 16 16 16 16 16
32 32 31 30 29 29 29 29 30 30 30 30 30 28 27 27 26 25 24 23 22 22 21 20 20 20 19 19 18 18 18 17 17 17 17 17 17 17 16 16 16 16 16 16 16 15 15 15 15
Wind_Speed
9 10 9 5 4 2 4 9 11 11 11 11 11 11 15 14 9 7 6 8 10 10 12 11 10 9 8 7 6 6 6 6 6 6 7 7 7 7 7 7 7 7 6 7 7 7 6 6 6
9 10 7 4 2 3 7 10 11 11 9 9 11 13 15 14 12 8 7 7 9 9 10 10 10 9 8 7 6 6 6 6 5 6 7 7 7 7 6 7 7 6 6 6 6 6 6 6 6
11 12 6 3 2 5 8 9 9 8 8 9 11 13 12 10 10 7 6 7 9 10 11 12 11 9 8 7 6 6 6 6 6 6 7 7 7 6 7 7 7 6 5 5 6 6 6 7 6
7 6 4 2 5 8 8 8 8 9 10 9 10 10 11 10 9 8 6 8 9 10 12 12 11 9 8 7 7 6 6 6 7 7 7 7 7 7 7 7 6 6 5 5 5 6 7 7 7
8 5 3 2 6 8 9 9 9 10 11 12 13 12 11 11 10 8 7 8 9 11 11 12 11 9 7 7 8 7 7 7 7 7 7 7 7 7 7 6 6 6 6 5 5 6 6 7 8
5 4 1 3 6 8 9 8 10 11 12 12 12 12 9 9 8 7 7 8 9 10 10 11 11 9 8 8 9 9 8 7 7 7 7 6 7 7 7 6 6 6 6 5 5 5 6 7 8
7 6 3 3 5 7 8 8 10 10 11 10 9 10 8 8 8 7 7 8 9 9 9 9 9 9 9 11 11 10 9 8 8 8 7 7 7 7 8 7 7 7 6 5 6 6 7 7 8
7 5 4 4 6 7 7 8 9 10 10 9 8 8 7 7 8 7 8 8 8 7 7 7 7 8 9 10 11 11 11 9 9 8 7 7 6 8 9 9 8 7 6 6 6 6 7 8 9
6 5 3 5 7 6 6 9 9 10 10 10 11 11 10 9 8 8 8 7 7 7 6 5 5 5 6 7 10 11 11 10 8 7 7 6 4 5 7 7 9 9 8 7 7 7 8 8 9
4 3 3 4 5 5 7 7 6 7 9 9 11 11 10 9 8 8 7 7 7 6 6 6 5 5 5 5 7 6 6 7 6 4 5 4 3 3 4 8 9 9 8 8 8 8 7 8 6
3 2 2 3 5 4 6 6 6 7 8 7 8 9 8 8 8 7 6 7 7 6 7 7 7 6 6 5 4 3 4 4 5 5 3 3 2 2 3 4 5 6 6 5 5 6 6 5 4
3 2 1 2 3 3 4 5 7 7 8 9 9 9 8 7 7 8 7 7 6 6 8 8 7 6 6 6 4 4 3 3 3 4 3 2 2 2 2 2 1 2 2 2 2 2 3 3 3
3 3 1 2 3 2 2 6 7 9 9 10 10 9 8 7 7 7 8 7 7 6 7 8 7 7 6 5 3 4 4 3 4 4 4 3 2 2 2 2 1 1 1 1 1 2 2 2 2
4 4 3 2 3 3 2 5 6 7 10 10 9 8 7 7 6 7 7 7 7 6 6 7 6 7 6 5 3 3 3 3 3 4 4 3 3 2 1 1 1 0 0 1 1 1 0 1 1
7 6 5 3 4 3 3 5 7 7 9 9 9 9 7 7 6 6 7 7 7 6 6 6 6 7 6 4 2 3 3 4 4 4 4 3 3 2 1 1 1 1 1 0 0 1 0 1 1
8 8 7 5 6 5 5 3 7 9 9 8 8 9 8 6 6 6 7 7 7 7 7 5 5 7 6 4 2 3 3 4 3 4 4 3 3 2 1 1 1 1 1 1 0 0 1 1 1
9 9 8 5 7 6 6 4 7 8 9 8 8 8 9 8 7 7 7 8 8 8 7 6 6 7 5 4 3 2 3 3 3 4 3 2 3 3 1 2 1 1 1 1 2 2 2 1 1
8 7 6 6 6 5 3 4 8 8 8 9 9 9 8 9 8 8 9 9 9 8 7 7 6 6 4 4 3 3 4 3 3 3 3 3 2 3 2 1 1 1 1 2 2 2 2 1 1
12 9 6 4 4 4 3 3 7 8 9 10 10 9 9 9 9 9 9 9 8 8 7 6 5 4 3 3 2 2 2 2 3 3 3 3 2 2 1 2 1 1 1 1 2 2 2 1 1
13 9 7 5 5 6 5 3 5 9 9 9 10 10 10 11 12 11 10 9 8 8 7 7 6 4 3 3 2 2 2 2 3 3 3 3 3 2 2 3 2 1 1 1 2 2 2 2 1
11 9 9 9 8 7 5 5 6 7 7 9 10 9 10 11 13 12 10 9 8 8 7 6 5 4 3 3 3 2 3 2 3 3 2 2 2 3 3 2 2 2 1 1 1 1 2 2 2
11 10 10 11 10 7 7 6 6 7 7 9 11 11 10 11 12 12 11 10 9 9 8 7 6 5 4 3 3 3 3 2 2 2 2 2 2 2 2 2 2 2 2 2 3 2 2 2 3
10 10 12 13 10 10 9 5 5 6 8 10 11 12 11 12 12 12 11 10 10 10 9 8 7 5 4 3 2 2 2 2 2 2 3 2 1 2 2 2 2 2 2 3 3 3 3 2 3
10 11 14 12 9 11 10 7 4 6 7 9 11 12 12 12 12 12 12 10 9 9 9 8 7 6 5 4 3 2 2 1 2 2 2 1 1 2 2 2 3 3 2 3 3 3 3 3 3
11 11 9 7 6 8 8 6 3 4 7 9 11 11 12 12 12 11 12 11 9 9 9 9 8 6 5 4 3 2 2 2 2 1 1 1 2 2 2 2 2 2 2 2 3 3 2 3 3
10 11 9 7 6 7 6 4 3 4 5 7 10 12 12 12 11 11 10 11 10 10 9 9 8 6 6 5 4 2 2 1 1 1 1 2 2 2 2 2 2 2 3 3 3 3 3 2 3
11 11 9 9 11 8 5 5 4 6 7 9 11 11 11 11 11 10 10 9 10 10 9 9 9 7 6 5 5 4 3 2 1 1 2 2 2 2 2 2 2 2 3 3 3 2 3 3 3
12 10 7 7 7 8 6 5 3 5 6 7 10 10 9 9 10 10 9 8 7 8 9 10 9 8 6 5 4 4 3 3 2 2 2 2 3 3 3 3 3 2 3 3 3 3 3 3 3
11 12 10 7 7 8 6 4 2 4 3 6 9 10 10 9 9 10 9 8 8 7 8 9 9 8 7 6 4 3 4 3 3 2 2 2 2 2 2 2 2 2 3 3 3 3 3 3 3
13 11 11 9 8 9 9 3 1 1 5 6 9 11 10 9 9 9 9 8 8 6 5 6 7 8 8 6 5 4 3 4 3 3 2 2 2 1 1 1 1 2 2 3 3 4 4 4 4
Wind_Direction
194 208 214 229 251 246 38 52 53 52 50 50 52 53 53 53 52 77 90 92 100 110 120 123 123 120 119 118 118 121 125 130 140 146 144 144 144 143 142 140 140 145 149 151 153 160 167 166 167
216 219 222 235 260 39 56 55 57 57 57 56 60 61 63 63 68 88 93 92 104 111 119 122 126 125 125 124 121 122 126 128 136 150 153 149 146 147 148 148 149 152 158 164 165 169 174 175 179
239 240 251 239 31 52 59 58 65 68 69 66 70 61 59 63 68 85 95 94 97 101 109 121 129 129 129 133 134 133 131 129 127 136 149 150 147 147 148 152 153 154 158 166 175 179 179 182 189
243 239 243 292 41 56 65 67 73 72 69 64 75 70 65 65 77 87 90 91 95 103 110 123 133 136 142 146 149 146 137 129 125 130 140 146 149 147 148 154 160 162 159 165 178 188 189 190 196
240 261 247 28 52 61 60 62 68 67 66 68 74 77 75 72 80 86 90 87 95 104 113 129 140 143 147 153 156 149 142 137 135 135 140 147 152 152 155 161 166 169 170 177 186 196 200 203 206
261 258 277 73 63 66 61 61 66 66 70 72 79 83 79 85 83 83 81 84 82 95 108 125 143 146 147 147 151 150 145 143 141 141 146 154 159 167 169 168 165 168 177 187 194 197 199 207 215
258 285 302 82 90 66 58 61 64 70 64 65 76 87 86 87 81 76 78 82 83 92 113 130 140 149 150 148 150 153 154 153 152 151 158 165 173 178 177 169 164 167 171 182 195 202 208 215 221
266 291 332 52 78 73 61 66 69 77 68 61 68 80 93 96 95 90 77 74 74 79 94 115 130 143 155 155 154 158 161 165 166 166 169 175 183 182 180 170 164 167 174 184 193 203 210 219 225
270 288 2 39 65 78 75 75 75 87 85 72 67 85 106 109 103 96 85 75 68 67 71 82 100 121 132 142 151 163 167 171 174 176 179 182 178 178 178 166 164 174 182 190 198 210 217 224 229
246 291 14 54 73 85 81 82 94 94 89 84 85 87 102 108 107 99 93 85 72 66 67 70 71 67 86 97 132 154 150 153 157 142 158 166 174 172 154 158 170 181 190 197 207 221 225 227 225
258 277 5 60 67 74 81 82 85 94 99 103 109 110 112 112 109 99 92 87 80 70 67 77 84 68 60 67 94 112 116 134 133 126 140 141 137 131 129 154 168 186 189 199 202 215 217 217 214
246 256 249 95 78 63 72 84 82 80 103 120 115 117 120 119 116 112 101 92 88 77 73 74 77 75 64 60 65 91 98 107 111 113 103 98 99 74 89 106 134 166 175 176 186 215 211 223 218
274 245 225 114 120 98 102 92 96 101 111 113 114 117 118 115 111 110 108 98 88 80 76 76 74 70 62 64 52 82 81 79 95 101 101 85 91 79 70 70 49 21 82 125 288 262 236 215 216
273 266 240 195 158 183 149 119 112 121 127 125 126 126 125 118 111 109 110 106 102 95 87 87 89 91 76 69 58 75 92 104 97 95 88 81 83 77 62 77 92 27 33 110 231 283 302 249 222
262 262 248 221 215 203 210 149 134 142 135 138 138 135 128 125 122 113 113 111 107 101 93 102 111 102 95 83 55 69 68 85 88 92 89 79 68 79 75 99 58 8 344 333 256 341 305 235 234
259 249 245 233 223 208 222 164 134 148 147 149 148 140 134 133 126 110 110 111 107 103 95 89 98 102 104 99 79 63 67 73 84 91 89 83 69 77 77 86 48 4 336 316 282 352 309 281 258
254 239 226 232 240 227 221 163 148 175 161 156 155 150 149 144 128 119 118 114 107 102 100 94 88 100 105 113 109 99 89 76 82 86 85 82 78 72 59 81 59 339 21 357 350 28 7 350 307
257 254 230 219 224 234 231 166 173 189 174 164 162 156 151 146 139 133 124 122 116 110 106 103 100 98 106 107 108 100 92 86 79 81 74 77 75 70 39 87 64 11 49 11 0 2 351 309 266
262 268 268 249 227 248 252 191 190 196 194 173 160 158 152 145 138 130 127 123 118 112 112 111 109 107 108 107 108 107 104 105 98 93 83 72 60 55 51 42 38 354 74 34 349 359 338 311 272
262 270 274 260 243 250 248 229 211 211 192 174 164 162 160 152 139 135 135 130 126 123 121 117 116 114 112 116 120 128 115 107 99 77 75 61 52 42 53 47 15 1 25 16 320 325 323 312 314
265 267 272 276 269 250 248 232 241 232 202 166 162 163 156 148 142 142 140 137 135 131 128 125 123 122 121 113 120 106 95 82 82 88 81 52 47 48 32 47 24 -0 8 355 297 333 313 309 314
263 266 270 269 272 266 263 250 228 227 206 173 163 157 156 148 146 146 146 146 146 142 137 128 129 124 119 116 119 123 118 111 93 94 92 74 47 50 46 47 28 6 16 11 346 16 338 323 322
271 278 275 275 275 278 269 256 230 198 197 178 167 159 155 150 149 149 149 148 148 143 140 137 133 130 127 133 123 116 104 93 90 102 109 104 70 49 44 36 26 20 21 11 359 359 350 341 334
264 270 272 267 263 261 265 260 227 203 185 173 163 163 155 153 148 146 144 144 148 146 145 142 139 140 141 139 132 122 111 79 79 78 97 117 91 53 39 50 28 23 11 7 354 345 354 354 345
253 260 266 271 263 261 268 256 214 198 170 158 159 159 156 151 145 145 148 150 150 150 148 145 145 146 144 141 138 135 139 120 91 80 77 73 70 63 34 40 33 19 360 1 358 353 347 359 340
246 254 261 270 269 272 284 258 206 177 157 142 143 149 148 148 148 150 150 152 155 153 150 146 145 145 146 148 145 138 135 133 98 59 49 65 60 61 50 47 35 17 5 359 354 337 349 356 330
245 254 264 267 276 278 253 237 190 158 149 148 142 139 145 153 154 152 152 153 154 154 155 153 148 147 153 157 152 143 139 123 98 69 70 63 64 73 60 51 45 27 10 358 346 343 354 347 348
239 251 259 259 275 273 272 247 199 157 151 140 133 138 143 152 153 145 143 140 138 148 151 146 147 151 156 156 162 151 140 128 108 81 71 63 54 40 42 36 26 16 2 352 349 340 356 357 350
236 241 249 259 256 267 272 272 123 140 153 160 148 141 145 151 144 142 139 136 133 138 149 148 150 153 152 151 147 136 147 145 139 123 97 85 67 57 51 47 24 12 3 356 354 342 356 349 340
255 243 247 252 259 271 273 260 113 147 176 170 143 135 137 137 133 132 133 136 136 137 143 148 153 158 159 157 153 158 155 153 151 130 117 118 119 97 78 59 31 16 25 8 358 344 346 348 346
Height
1482 1482 1483 1486 1485 1480 1475 1463 1458 1459 1459 1460 1461 1462 1465 1469 1475 1486 1485 1483 1482 1481 1481 1481 1481 1481 1482 1482 1483 1484 1485 1486 1487 1488 1490 1492 1494 1496 1498 1500 1502 1503 1505 1507 1508 1510 1511 1513 1514
1481 1482 1486 1485 1482 1483 1475 1461 1461 1462 1462 1462 1463 1465 1468 1473 1478 1482 1483 1483 1482 1481 1480 1480 1481 1481 1482 1482 1483 1484 1484 1485 1485 1487 1489 1492 1494 1496 1498 1500 1502 1503 1505 1507 1508 1509 1511 1512 1514
1481 1484 1485 1478 1476 1477 1473 1462 1461 1462 1463 1464 1466 1469 1473 1478 1481 1483 1483 1483 1482 1481 1480 1480 1481 1481 1481 1482 1483 1484 1484 1485 1485 1486 1488 1491 1494 1496 1498 1500 1502 1503 1505 1506 1508 1509 1511 1512 1513
1483 1483 1482 1476 1474 1465 1462 1459 1459 1461 1464 1465 1467 1472 1478 1481 1483 1484 1484 1483 1483 1482 1481 1480 1481 1481 1481 1481 1482 1483 1484 1485 1486 1487 1489 1491 1494 1496 1498 1500 1502 1503 1505 1506 1507 1509 1510 1511 1513
1484 1482 1478 1477 1470 1462 1458 1459 1460 1462 1465 1468 1471 1476 1481 1483 1484 1484 1484 1484 1484 1483 1482 1481 1481 1481 1479 1478 1480 1483 1485 1486 1487 1489 1490 1492 1494 1496 1498 1500 1502 1503 1505 1506 1507 1508 1509 1511 1512
1483 1477 1480 1480 1471 1463 1460 1461 1462 1464 1467 1470 1473 1477 1483 1485 1485 1485 1485 1485 1484 1484 1483 1483 1482 1481 1478 1476 1478 1483 1485 1487 1489 1490 1492 1494 1495 1497 1499 1501 1502 1503 1504 1505 1507 1508 1509 1510 1511
1480 1475 1474 1471 1471 1466 1462 1462 1464 1467 1469 1472 1475 1479 1484 1486 1486 1486 1486 1486 1486 1485 1484 1483 1483 1482 1480 1479 1481 1484 1486 1488 1490 1492 1493 1495 1497 1498 1500 1501 1502 1503 1504 1505 1506 1507 1508 1509 1510
1475 1472 1470 1467 1469 1469 1463 1464 1466 1469 1472 1475 1476 1479 1484 1486 1486 1486 1487 1487 1487 1486 1485 1485 1484 1483 1482 1482 1484 1486 1488 1490 1491 1493 1494 1496 1497 1499 1500 1501 1502 1504 1504 1505 1506 1507 1507 1509 1510
1472 1474 1474 1469 1467 1466 1464 1465 1468 1471 1474 1477 1478 1480 1484 1486 1487 1487 1487 1487 1487 1487 1486 1485 1485 1484 1485 1485 1485 1487 1489 1491 1493 1494 1495 1497 1498 1500 1501 1502 1503 1504 1504 1505 1506 1506 1507 1508 1509
1468 1474 1469 1463 1462 1463 1464 1466 1468 1471 1475 1478 1481 1483 1485 1487 1487 1487 1488 1488 1488 1487 1486 1485 1485 1486 1486 1486 1486 1488 1491 1492 1494 1495 1496 1498 1499 1501 1502 1502 1503 1504 1504 1505 1506 1506 1507 1507 1508
1464 1467 1462 1462 1462 1462 1464 1466 1468 1470 1476 1479 1481 1484 1486 1487 1488 1488 1489 1489 1489 1488 1486 1485 1486 1487 1487 1487 1488 1490 1492 1494 1495 1496 1497 1499 1500 1501 1502 1502 1503 1503 1504 1505 1505 1506 1506 1506 1507
1462 1462 1461 1462 1463 1464 1464 1467 1469 1472 1476 1479 1482 1484 1486 1487 1488 1489 1490 1490 1490 1490 1488 1487 1488 1488 1489 1489 1490 1492 1493 1495 1496 1497 1498 1499 1500 1501 1502 1503 1503 1503 1504 1504 1504 1505 1505 1505 1506
1461 1461 1460 1462 1463 1464 1465 1467 1470 1474 1477 1479 1482 1485 1486 1488 1489 1490 1491 1491 1491 1491 1490 1490 1490 1490 1491 1491 1493 1494 1495 1497 1497 1498 1499 1500 1500 1501 1502 1502 1503 1503 1504 1504 1503 1504 1504 1504 1505
1461 1460 1460 1461 1462 1464 1464 1466 1470 1473 1476 1479 1482 1485 1487 1488 1490 1491 1491 1492 1492 1492 1492 1492 1492 1492 1492 1493 1494 1496 1497 1498 1499 1499 1500 1500 1501 1501 1502 1502 1503 1503 1503 1503 1503 1503 1503 1503 1504
1462 1460 1460 1460 1462 1462 1463 1467 1468 1472 1475 1478 1481 1484 1487 1489 1490 1491 1492 1492 1492 1493 1493 1493 1493 1493 1493 1494 1495 1497 1498 1499 1499 1500 1500 1501 1501 1501 1502 1503 1503 1503 1503 1503 1502 1502 1502 1502 1503
1460 1464 1469 1461 1458 1459 1465 1474 1468 1469 1473 1476 1479 1482 1486 1488 1490 1491 1492 1492 1493 1493 1493 1493 1494 1494 1495 1495 1497 1498 1498 1499 1500 1501 1501 1502 1502 1502 1502 1503 1503 1503 1503 1503 1502 1502 1501 1502 1502
1464 1470 1469 1463 1455 1455 1459 1467 1466 1468 1470 1474 1477 1480 1484 1487 1489 1491 1492 1493 1493 1493 1494 1494 1494 1495 1496 1497 1498 1498 1499 1500 1501 1502 1502 1502 1503 1503 1503 1503 1503 1503 1503 1503 1502 1502 1501 1501 1501
1471 1465 1463 1463 1454 1453 1458 1462 1462 1465 1467 1470 1475 1478 1482 1485 1488 1490 1491 1492 1493 1494 1494 1495 1495 1496 1497 1498 1498 1499 1500 1501 1502 1502 1502 1503 1503 1503 1503 1503 1503 1503 1503 1502 1502 1501 1501 1500 1500
1457 1457 1459 1456 1449 1453 1458 1460 1461 1461 1464 1466 1471 1475 1479 1483 1487 1489 1490 1492 1493 1494 1495 1495 1496 1496 1497 1498 1499 1500 1501 1502 1502 1503 1503 1503 1503 1503 1503 1503 1503 1503 1503 1503 1502 1501 1501 1500 1500
1453 1457 1458 1453 1448 1451 1457 1460 1457 1458 1459 1463 1468 1472 1476 1481 1484 1487 1490 1492 1493 1494 1495 1495 1496 1497 1498 1499 1500 1501 1501 1502 1503 1503 1503 1504 1504 1504 1504 1503 1503 1503 1503 1503 1502 1502 1501 1501 1500
1454 1456 1456 1456 1448 1448 1455 1465 1460 1456 1457 1460 1465 1469 1473 1478 1482 1486 1489 1491 1493 1494 1495 1496 1496 1497 1498 1499 1500 1501 1502 1503 1503 1504 1504 1504 1504 1504 1504 1504 1504 1503 1503 1503 1502 1502 1502 1501 1501
1458 1447 1448 1449 1455 1459 1457 1477 1466 1459 1458 1458 1463 1467 1471 1476 1480 1484 1487 1490 1492 1494 1494 1495 1496 1497 1498 1499 1500 1501 1502 1503 1504 1504 1504 1505 1505 1504 1504 1504 1504 1503 1503 1503 1502 1502 1502 1501 1501
1450 1444 1446 1447 1454 1462 1458 1470 1470 1458 1459 1458 1460 1465 1470 1474 1478 1482 1486 1489 1491 1493 1494 1495 1496 1497 1498 1499 1501 1502 1503 1504 1504 1505 1505 1505 1505 1505 1504 1504 1504 1503 1503 1503 1502 1502 1501 1501 1500
1444 1446 1447 1447 1456 1477 1467 1471 1474 1457 1454 1454 1457 1462 1467 1472 1476 1480 1485 1488 1490 1492 1493 1494 1495 1497 1498 1499 1500 1502 1503 1504 1504 1505 1505 1505 1505 1505 1504 1504 1503 1503 1502 1502 1502 1501 1500 1500 1500
1446 1458 1472 1479 1481 1481 1461 1464 1465 1449 1445 1448 1454 1459 1465 1470 1475 1479 1483 1486 1489 1491 1492 1493 1495 1496 1498 1499 1500 1501 1502 1504 1504 1505 1505 1505 1505 1504 1504 1504 1503 1503 1502 1502 1501 1500 1499 1499 1498
1449 1455 1476 1492 1492 1481 1465 1469 1456 1444 1444 1448 1452 1458 1464 1469 1474 1478 1482 1485 1487 1489 1491 1492 1493 1495 1497 1498 1500 1501 1502 1503 1504 1505 1505 1505 1505 1504 1504 1503 1503 1503 1502 1501 1501 1500 1499 1498 1498
1450 1452 1451 1467 1473 1479 1472 1463 1451 1442 1444 1448 1452 1458 1464 1469 1474 1477 1481 1484 1486 1488 1490 1491 1492 1494 1496 1498 1499 1500 1501 1502 1503 1504 1505 1505 1504 1504 1503 1503 1503 1502 1501 1501 1500 1499 1498 1498 1497
1440 1445 1455 1466 1485 1488 1476 1468 1462 1451 1447 1448 1452 1458 1463 1468 1472 1476 1480 1483 1485 1487 1489 1490 1491 1493 1495 1497 1498 1500 1500 1501 1502 1503 1503 1503 1504 1503 1503 1503 1502 1501 1501 1500 1499 1498 1498 1497 1496
1443 1447 1450 1456 1463 1477 1486 1474 1446 1448 1448 1449 1452 1457 1462 1467 1471 1475 1479 1482 1484 1487 1488 1489 1491 1492 1494 1495 1497 1498 1499 1500 1501 1501 1502 1502 1502 1502 1502 1502 1501 1501 1500 1499 1499 1498 1497 1496 1495
1437 1442 1447 1463 1466 1462 1470 1468 1442 1443 1445 1448 1451 1456 1461 1466 1470 1474 1478 1481 1484 1486 1488 1489 1490 1491 1493 1494 1496 1497 1498 1499 1500 1501 1501 1501 1501 1501 1501 1501 1501 1500 1500 1499 1498 1497 1496 1495 1494